Location: Sofia
(42.6977°N, 23.3219°E)
Time: 12:48:26
(UTC+03:00)

NOAA 15 - Pass Details

Date: 26 February 2024
Orbit: 795 x 811 km, 98.6° (Epoch: 12 April)

Event Time Altitude Azimuth Distance (km) Brightness Sun altitude
Rises 20:57:06 0° 223° (SW) 3,305 8.1 -30.8°
Reaches altitude 10° 21:02:10 10° 266° (W) 2,388 7.8 -31.7°
Maximum altitude 21:02:47 10° 273° (W) 2,376 7.8 -31.8°
Drops below altitude 10° 21:03:24 10° 280° (W) 2,391 7.9 -31.9°
Sets 21:08:32 0° 323° (NW) 3,335 8.6 -32.8°
